Weather History for Claxton, GA

Change the Weather History Date:

Sunday, November 3, 2013

  Actual Average (KSAV) Record (KSAV)
Temperature  
Mean Temperature 55 °F 63 °F  
Max Temperature 68 °F 74 °F 85 °F (1961)
Min Temperature 42 °F 51 °F 24 °F (1954)
Degree Days  
Heating Degree Days 10 4  
Month to date heating degree days 12  
Since 1 July heating degree days 69  
Cooling Degree Days 0 2  
Month to date cooling degree days 6  
Year to date cooling degree days 2418  
Growing Degree Days 5 (Base 50)    
Moisture  
Dew Point 45 °F    
Average Humidity 79    
Maximum Humidity 100    
Minimum Humidity 37    
Precipitation  
Precipitation 0.00 in 0.08 in 3.06 in (1900)
Month to date precipitation 0.23  
Year to date precipitation 42.87  
Sea Level Pressure  
Sea Level Pressure 30.15 in    
Wind  
Wind Speed 2 mph (NE)    
Max Wind Speed 10 mph    
Max Gust Speed 17 mph    
Visibility 10 miles    
Events      
T = Trace of Precipitation, MM = Missing Value Source: NWS Daily Summary

Daily Weather History Graph

Daily Weather History Graph

Search for Another Location

Airport:

Trip Planner

Search our weather history database for the weather conditions in past years. The results will help you decide how hot, cold, wet, or windy it might be!

Date:

Astronomy

Nov. 03, 2013 Rise Set
Actual Time 6:46 AM EST 5:35 PM EST
Civil Twilight 6:20 AM EST 6:00 PM EST
Nautical Twilight 5:51 AM EST 6:29 PM EST
Astronomical Twilight 5:23 AM EST 6:58 PM EST
Moon 6:47 AM EST (11/3) 5:51 PM EST (11/3)
Length of Visible Light 11h 39m
Length of Day
10h 49m
New Moon, 0% of the Moon is Illuminated
Nov 3
New Moon
Nov 10
First Quarter
Nov 17
Full
Nov 25
Last Quarter
Dec 2
New

Hourly Weather History & Observations

Time (EST) Temp. Dew Point Humidity Pressure Visibility Wind Dir Wind Speed Gust Speed Precip Events Conditions
12:15 AM 51.8 °F 51.8 °F 100% 30.00 in 10.0 mi Calm Calm - N/A   Clear
12:35 AM 51.8 °F 51.8 °F 100% 30.00 in 10.0 mi Calm Calm - N/A   Clear
12:55 AM 50.0 °F 50.0 °F 100% 30.00 in 10.0 mi Calm Calm - N/A   Clear
1:15 AM 50.0 °F 50.0 °F 100% 30.00 in 10.0 mi Calm Calm - N/A   Clear
1:35 AM 50.0 °F 50.0 °F 100% 30.01 in 10.0 mi Calm Calm - N/A   Clear
1:55 AM 50.0 °F 50.0 °F 100% 30.01 in 10.0 mi Calm Calm - N/A   Clear
1:15 AM 50.0 °F 50.0 °F 100% 30.02 in 10.0 mi Calm Calm - N/A   Clear
1:35 AM 50.0 °F 50.0 °F 100% 30.02 in 10.0 mi Calm Calm - N/A   Clear
1:55 AM 48.2 °F 48.2 °F 100% 30.03 in 10.0 mi Calm Calm - N/A   Clear
2:15 AM 48.2 °F 48.2 °F 100% 30.03 in 10.0 mi Calm Calm - N/A   Clear
2:35 AM 46.4 °F 46.4 °F 100% 30.03 in 10.0 mi Calm Calm - N/A   Clear
2:55 AM 46.4 °F 46.4 °F 100% 30.04 in 10.0 mi Calm Calm - N/A   Clear
3:15 AM 46.4 °F 46.4 °F 100% 30.05 in 10.0 mi Calm Calm - N/A   Clear
3:35 AM 46.4 °F 46.4 °F 100% 30.05 in 10.0 mi Calm Calm - N/A   Clear
3:55 AM 44.6 °F 44.6 °F 100% 30.05 in 7.0 mi Calm Calm - N/A   Clear
4:15 AM 44.6 °F 44.6 °F 100% 30.06 in 7.0 mi Calm Calm - N/A   Clear
4:35 AM 44.6 °F 44.6 °F 100% 30.07 in 10.0 mi Calm Calm - N/A   Clear
4:55 AM 44.6 °F 44.6 °F 100% 30.08 in 10.0 mi Calm Calm - N/A   Clear
5:15 AM 44.6 °F 44.6 °F 100% 30.08 in 7.0 mi Calm Calm - N/A   Clear
5:35 AM 44.6 °F 44.6 °F 100% 30.09 in 7.0 mi Calm Calm - N/A   Clear
5:55 AM 44.6 °F 44.6 °F 100% 30.10 in 7.0 mi Calm Calm - N/A   Clear
6:15 AM 42.8 °F 42.8 °F 100% 30.10 in 10.0 mi Calm Calm - N/A   Clear
6:35 AM 42.8 °F 42.8 °F 100% 30.11 in 4.0 mi Calm Calm - N/A   Clear
6:55 AM 42.8 °F 42.8 °F 100% 30.12 in 10.0 mi Calm Calm - N/A   Clear
7:15 AM 42.8 °F 42.8 °F 100% 30.13 in 7.0 mi Calm Calm - N/A   Clear
7:35 AM 44.6 °F 44.6 °F 100% 30.14 in 10.0 mi Calm Calm - N/A   Clear
7:55 AM 48.2 °F 48.2 °F 100% 30.15 in 10.0 mi NNW 5.8 mph - N/A   Clear
8:15 AM 51.8 °F 48.2 °F 88% 30.17 in 10.0 mi North 4.6 mph - N/A   Clear
8:35 AM 53.6 °F 48.2 °F 82% 30.18 in 10.0 mi Calm Calm - N/A   Clear
8:55 AM 55.4 °F 46.4 °F 72% 30.18 in 10.0 mi North 3.5 mph - N/A   Clear
9:15 AM 57.2 °F 46.4 °F 67% 30.19 in 10.0 mi Calm Calm - N/A   Clear
9:35 AM 59.0 °F 46.4 °F 63% 30.20 in 10.0 mi NNE 4.6 mph - N/A   Clear
9:55 AM 60.8 °F 46.4 °F 59% 30.21 in 10.0 mi NE 4.6 mph - N/A   Clear
10:15 AM 62.6 °F 44.6 °F 52% 30.21 in 10.0 mi ENE 8.1 mph - N/A   Clear
10:35 AM 62.6 °F 42.8 °F 48% 30.21 in 10.0 mi NE 9.2 mph - N/A   Clear
10:55 AM 62.6 °F 42.8 °F 48% 30.21 in 10.0 mi ENE 8.1 mph - N/A   Clear
11:15 AM 64.4 °F 42.8 °F 45% 30.21 in 10.0 mi ENE 9.2 mph - N/A   Clear
11:35 AM 64.4 °F 42.8 °F 45% 30.21 in 10.0 mi ENE 8.1 mph - N/A   Clear
11:55 AM 64.4 °F 42.8 °F 45% 30.20 in 10.0 mi ENE 9.2 mph 17.3 mph N/A   Clear
12:15 PM 66.2 °F 42.8 °F 43% 30.20 in 10.0 mi NE 6.9 mph - N/A   Clear
12:35 PM 68.0 °F 42.8 °F 40% 30.19 in 10.0 mi East 9.2 mph - N/A   Clear
12:55 PM 68.0 °F 42.8 °F 40% 30.18 in 10.0 mi NE 4.6 mph - N/A   Clear
1:15 PM 68.0 °F 42.8 °F 40% 30.18 in 10.0 mi ENE 10.4 mph - N/A   Clear
1:35 PM 68.0 °F 42.8 °F 40% 30.17 in 10.0 mi ENE 6.9 mph - N/A   Clear
1:55 PM 68.0 °F 41.0 °F 37% 30.17 in 10.0 mi NE 9.2 mph - N/A   Clear
2:15 PM 68.0 °F 41.0 °F 37% 30.16 in 10.0 mi NE 5.8 mph - N/A   Clear
2:35 PM 68.0 °F 41.0 °F 37% 30.16 in 10.0 mi NNE 4.6 mph - N/A   Clear
2:55 PM 68.0 °F 41.0 °F 37% 30.16 in 10.0 mi NE 6.9 mph - N/A   Clear
3:15 PM 68.0 °F 41.0 °F 37% 30.16 in 10.0 mi NE 4.6 mph - N/A   Clear
3:35 PM 68.0 °F 41.0 °F 37% 30.16 in 10.0 mi NNE 5.8 mph - N/A   Clear
3:55 PM 68.0 °F 41.0 °F 37% 30.17 in 10.0 mi NNE 3.5 mph - N/A   Clear
4:15 PM 68.0 °F 41.0 °F 37% 30.17 in 10.0 mi NE 6.9 mph - N/A   Clear
4:35 PM 66.2 °F 41.0 °F 40% 30.18 in 10.0 mi ENE 4.6 mph - N/A   Clear
4:55 PM 64.4 °F 41.0 °F 42% 30.18 in 10.0 mi NE 3.5 mph - N/A   Clear
5:15 PM 64.4 °F 42.8 °F 45% 30.19 in 10.0 mi Calm Calm - N/A   Clear
5:35 PM 59.0 °F 46.4 °F 63% 30.20 in 10.0 mi Calm Calm - N/A   Clear
5:55 PM 55.4 °F 50.0 °F 82% 30.20 in 10.0 mi Calm Calm - N/A   Clear
6:15 PM 53.6 °F 50.0 °F 88% 30.21 in 10.0 mi Calm Calm - N/A   Clear
6:35 PM 51.8 °F 50.0 °F 94% 30.22 in 10.0 mi Calm Calm - N/A   Clear
6:55 PM 51.8 °F 50.0 °F 94% 30.23 in 10.0 mi Calm Calm - N/A   Clear
7:15 PM 50.0 °F 50.0 °F 100% 30.23 in 10.0 mi Calm Calm - N/A   Clear
7:35 PM 50.0 °F 50.0 °F 100% 30.23 in 10.0 mi Calm Calm - N/A   Clear
7:55 PM 48.2 °F 48.2 °F 100% 30.24 in 10.0 mi Calm Calm - N/A   Clear
8:15 PM 46.4 °F 46.4 °F 100% 30.25 in 10.0 mi Calm Calm - N/A   Clear
8:35 PM 46.4 °F 46.4 °F 100% 30.26 in 10.0 mi Calm Calm - N/A   Clear
8:55 PM 46.4 °F 46.4 °F 100% 30.27 in 10.0 mi Calm Calm - N/A   Clear
9:15 PM 44.6 °F 44.6 °F 100% 30.27 in 10.0 mi Calm Calm - N/A   Clear
9:35 PM 44.6 °F 44.6 °F 100% 30.28 in 10.0 mi Calm Calm - N/A   Clear
9:55 PM 44.6 °F 44.6 °F 100% 30.28 in 10.0 mi Calm Calm - N/A   Clear
10:15 PM 44.6 °F 44.6 °F 100% 30.28 in 10.0 mi Calm Calm - N/A   Clear
10:35 PM 44.6 °F 44.6 °F 100% 30.28 in 10.0 mi Calm Calm - N/A   Clear
10:55 PM 42.8 °F 42.8 °F 100% 30.28 in 10.0 mi Calm Calm - N/A   Clear